Other Public Products
Issued by NWS Charleston, SC

Current Version | Previous Version | Graphics & Text | Print | Product List | Glossary On
Versions: 1 2 3 4 5 6 7 8 9 10 11 12 13 14 15 16 17 18 19 20 21 22 23 24 25 26 27 28 29 30 31 32 33 34 35 36 37 38 39 40 41 42 43 44 45 46 47 48 49 50
347 FPUS82 KCHS 200412 OPUCHS TEST...KCHS/KSAV Gateway Observations...TEST National Weather Service Charleston SC 1200 AM EDT THU JUL 20 2017 NOTE: "fair" indicates few or no clouds below 12,000 feet with no significant weather and/or obstructions to visibility. SCZ050-WAZ558-NCZ071-TXZ119-213-PAZ071-DCZ001-FLZ074-172-MI076- NYZ176-178-MAZ016-IL014-TNZ027-NJZ106-GAZ044-MD014-200500- ...Gateway Observations for Charleston International... CITY SKY/WX TMP DP RH WIND PRES REMARKS Chas Airport PTCLDY 72 70 93 CALM 30.09S Seattle PTCLDY 69 51 52 SW6 30.02R Charlotte PTCLDY 74 68 81 S3 30.12R Dallas DFW CLEAR 88 70 55 SE9 30.04R HX 93 Dallas Love PTCLDY 90 69 50 SE13 30.05R HX 94 Philladelphia MOCLDY 82 73 74 S3 30.01S Wash National PTCLDY 84 76 76 S7 30.03S HX 93 Baltimore PTCLDY 81 73 76 SW6 30.02S Miami CLOUDY 82 75 79 E7 30.11F Detroit MOCLDY 76 72 87 SW6 30.05S Newark MOCLDY 85 70 60 W7 29.98S Laguardia MOCLDY 84 73 69 E3 29.98R HX 90 J F K MOCLDY 81 77 88 SW9 29.99S Boston Logan PTCLDY 80 61 52 W8 29.95S Ft. Lauderdale CLOUDY 81 76 84 SE6 N/A Chicago O`Hare TSTM 70 67 90 CALM 30.08F FOG Chicago Midway TSTM 72 67 84 N8 30.07F Houston Bush PTCLDY 84 75 74 S6 30.07R HX 92 Houston Hobby PTCLDY 84 75 74 S7 30.07R HX 92 Nashville PTCLDY 77 74 90 S3 30.12R Atlanta PTCLDY 81 69 67 W3 30.12R $$ GAZ044-118-TXZ119-213-NCZ071-DCZ001-MDZ014-506-PAZ021-071-NJZ106- NYZ176-178-MAZ106-OHZ011-021-055-MIZ076-KYZ091-ILZ014-INZ047- MNZ060-ONZ431-200500- ...Gateway Observations for Savannah International... CITY SKY/WX TMP DP RH WIND PRES REMARKS Savannah Arpt PTCLDY 76 73 91 CALM 30.10F Atlanta PTCLDY 81 69 67 W3 30.12R Charlotte PTCLDY 74 68 81 S3 30.12R Dallas DFW CLEAR 88 70 55 SE9 30.04R HX 93 Houston Bush PTCLDY 84 75 74 S6 30.07R HX 92 Wash National PTCLDY 84 76 76 S7 30.03S HX 93 Wash Dulles CLEAR 79 72 79 S3 30.03S Baltimore PTCLDY 81 73 76 SW6 30.02S Philadelphia MOCLDY 82 73 74 S3 30.01S Newark MOCLDY 85 70 60 W7 29.98S Laguardia MOCLDY 84 73 69 E3 29.98R HX 90 J F K MOCLDY 81 77 88 SW9 29.99S Boston PTCLDY 80 61 52 W8 29.95S Pittsburg MOCLDY 78 69 73 W3 30.10R Akron PTCLDY 74 67 78 CALM 30.10S Cleveland PTCLDY 79 67 66 CALM 30.08S Cincinnati CLEAR 73 66 78 CALM 30.11R Columbus CLEAR 74 71 87 CALM 30.08S Detroit MOCLDY 76 72 87 SW6 30.05S Chicago O`Hare TSTM 70 67 90 CALM 30.08F FOG Minneapolis TSTM 69 67 93 E7 29.93R FOG Indianapolis CLEAR 78 72 81 W3 30.10R Toronto Canada CLEAR 70 61 73 NW9 30.02S $$

USA.gov is the U.S. government's official web portal to all federal, state and local government web resources and services.